Time,TemperatureF,DewpointF,PressureIn,WindDirection,WindDirectionDegrees,WindSpeedMPH,WindSpeedGustMPH,Humidity,HourlyPrecipIn,Conditions,Clouds,dailyrainin,SoftwareType,DateUTC
2013-02-17 00:04:00,30.4,23.1,29.70,NW,315,0.7,1.3,74,0.00,,SKC,0.00,VWS V14.01,2013-02-17 07:04:00,
2013-02-17 00:09:00,30.6,23.3,29.70,NW,315,0.4,1.3,74,0.00,,SKC,0.00,VWS V14.01,2013-02-17 07:09:00,
2013-02-17 00:14:00,30.6,23.3,29.70,WNW,292,1.3,2.0,74,0.00,,SKC,0.00,VWS V14.01,2013-02-17 07:14:00,
2013-02-17 00:19:00,31.0,23.4,29.70,NNW,338,0.9,2.0,73,0.00,,SKC,0.00,VWS V14.01,2013-02-17 07:19:00,
2013-02-17 00:24:00,31.3,23.7,29.69,NW,315,0.7,3.1,73,0.00,,SKC,0.00,VWS V14.01,2013-02-17 07:24:00,
2013-02-17 00:29:00,31.5,23.5,29.69,NNW,338,1.3,3.1,72,0.00,,SKC,0.00,VWS V14.01,2013-02-17 07:29:00,
2013-02-17 00:34:00,32.0,23.3,29.69,NW,315,1.1,2.5,70,0.00,,SKC,0.00,VWS V14.01,2013-02-17 07:34:00,
2013-02-17 00:40:00,32.8,24.1,29.69,WNW,292,1.8,3.8,70,0.00,,SKC,0.00,VWS V14.01,2013-02-17 07:40:00,
2013-02-17 00:45:00,33.5,24.1,29.68,NW,315,0.7,3.8,68,0.00,,SKC,0.00,VWS V14.01,2013-02-17 07:45:00,
2013-02-17 00:50:00,33.3,23.5,29.68,NW,315,1.1,3.8,67,0.00,,SKC,0.00,VWS V14.01,2013-02-17 07:50:00,
2013-02-17 00:55:00,33.1,23.4,29.68,NW,315,0.9,3.8,67,0.00,,SKC,0.00,VWS V14.01,2013-02-17 07:55:00,
2013-02-17 01:00:00,32.9,23.5,29.68,NW,315,0.7,0.7,68,0.00,,SKC,0.00,VWS V14.01,2013-02-17 08:00:00,
2013-02-17 01:05:00,32.9,23.2,29.67,NW,315,1.3,2.0,67,0.00,,SKC,0.00,VWS V14.01,2013-02-17 08:05:00,
2013-02-17 01:10:00,33.1,23.7,29.67,NW,315,0.4,2.5,68,0.00,,SKC,0.00,VWS V14.01,2013-02-17 08:10:00,
2013-02-17 01:15:00,32.9,23.5,29.67,NW,315,1.1,2.5,68,0.00,,SKC,0.00,VWS V14.01,2013-02-17 08:15:00,
2013-02-17 01:21:00,33.1,23.7,29.67,NNW,338,1.3,2.5,68,0.00,,SKC,0.00,VWS V14.01,2013-02-17 08:21:00,
2013-02-17 01:26:00,33.1,23.7,29.67,NNW,338,1.6,2.5,68,0.00,,SKC,0.00,VWS V14.01,2013-02-17 08:26:00,
2013-02-17 01:31:00,33.1,23.4,29.67,NNW,338,0.9,1.1,67,0.00,,SKC,0.00,VWS V14.01,2013-02-17 08:31:00,
2013-02-17 01:36:00,33.5,23.7,29.67,NNW,338,1.6,2.7,67,0.00,,SKC,0.00,VWS V14.01,2013-02-17 08:36:00,
2013-02-17 01:41:00,33.7,23.6,29.66,NNW,338,1.1,2.7,66,0.00,,SKC,0.00,VWS V14.01,2013-02-17 08:41:00,
2013-02-17 01:46:00,33.8,23.3,29.66,WNW,292,1.3,2.7,65,0.00,,SKC,0.00,VWS V14.01,2013-02-17 08:46:00,
2013-02-17 01:51:00,33.8,23.3,29.66,NNE,22,0.4,2.7,65,0.00,,SKC,0.00,VWS V14.01,2013-02-17 08:51:00,
2013-02-17 01:56:00,33.8,23.3,29.66,NW,315,3.1,3.1,65,0.00,,SKC,0.00,VWS V14.01,2013-02-17 08:56:00,
2013-02-17 02:02:00,34.2,23.3,29.65,NW,315,2.5,2.5,64,0.00,,SKC,0.00,VWS V14.01,2013-02-17 09:02:00,
2013-02-17 02:07:00,33.8,22.9,29.65,NNW,338,1.1,2.5,64,0.00,,SKC,0.00,VWS V14.01,2013-02-17 09:07:00,
2013-02-17 02:12:00,33.5,22.6,29.65,NNW,338,2.5,2.5,64,0.00,,SKC,0.00,VWS V14.01,2013-02-17 09:12:00,
2013-02-17 02:17:00,32.8,22.3,29.65,NNW,338,2.7,3.1,65,0.00,,SKC,0.00,VWS V14.01,2013-02-17 09:17:00,
2013-02-17 02:22:00,32.4,22.3,29.65,NW,315,3.1,3.1,66,0.00,,SKC,0.00,VWS V14.01,2013-02-17 09:22:00,
2013-02-17 02:27:00,31.9,21.9,29.64,NNW,338,2.7,3.1,66,0.00,,SKC,0.00,VWS V14.01,2013-02-17 09:27:00,
2013-02-17 02:32:00,31.3,21.6,29.64,NNW,338,1.3,2.0,67,0.00,,SKC,0.00,VWS V14.01,2013-02-17 09:32:00,
2013-02-17 02:37:00,31.5,21.8,29.64,NNW,338,2.2,2.9,67,0.00,,SKC,0.00,VWS V14.01,2013-02-17 09:37:00,
2013-02-17 02:43:00,31.3,21.6,29.64,NW,315,1.1,2.9,67,0.00,,SKC,0.00,VWS V14.01,2013-02-17 09:43:00,
2013-02-17 02:48:00,31.0,21.3,29.64,NNW,338,3.1,3.1,67,0.00,,SKC,0.00,VWS V14.01,2013-02-17 09:48:00,
2013-02-17 02:53:00,30.4,21.5,29.64,NNW,338,0.7,3.1,69,0.00,,SKC,0.00,VWS V14.01,2013-02-17 09:53:00,
2013-02-17 02:58:00,30.1,21.5,29.64,NW,315,0.9,3.1,70,0.00,,SKC,0.00,VWS V14.01,2013-02-17 09:58:00,
2013-02-17 03:03:00,30.1,21.5,29.63,NNW,338,1.1,1.6,70,0.00,,SKC,0.00,VWS V14.01,2013-02-17 10:03:00,
2013-02-17 03:08:00,30.1,21.5,29.63,NNW,338,1.1,2.7,70,0.00,,SKC,0.00,VWS V14.01,2013-02-17 10:08:00,
2013-02-17 03:13:00,30.2,21.6,29.63,NW,315,1.1,2.7,70,0.00,,SKC,0.00,VWS V14.01,2013-02-17 10:13:00,
2013-02-17 03:18:00,29.9,21.3,29.63,North,0,1.8,2.7,70,0.00,,SKC,0.00,VWS V14.01,2013-02-17 10:18:00,
2013-02-17 03:24:00,29.9,21.3,29.63,NW,315,0.7,2.7,70,0.00,,SKC,0.00,VWS V14.01,2013-02-17 10:24:00,
2013-02-17 03:29:00,29.9,21.7,29.63,NNW,338,0.7,2.7,71,0.00,,SKC,0.00,VWS V14.01,2013-02-17 10:29:00,
2013-02-17 03:34:00,29.9,21.7,29.62,NNW,338,0.4,1.1,71,0.00,,SKC,0.00,VWS V14.01,2013-02-17 10:34:00,
2013-02-17 03:39:00,29.9,21.3,29.62,NNW,338,1.1,1.1,70,0.00,,SKC,0.00,VWS V14.01,2013-02-17 10:39:00,
2013-02-17 03:44:00,29.9,21.7,29.62,NNW,338,1.3,2.2,71,0.00,,SKC,0.00,VWS V14.01,2013-02-17 10:44:00,
2013-02-17 03:49:00,30.1,21.9,29.62,NW,315,1.8,2.2,71,0.00,,SKC,0.00,VWS V14.01,2013-02-17 10:49:00,
2013-02-17 03:54:00,30.1,21.5,29.62,NW,315,1.1,2.2,70,0.00,,SKC,0.00,VWS V14.01,2013-02-17 10:54:00,
2013-02-17 03:59:00,30.1,21.5,29.61,NNW,338,1.1,2.2,70,0.00,,SKC,0.00,VWS V14.01,2013-02-17 10:59:00,
2013-02-17 04:05:00,29.9,21.7,29.60,NW,315,2.0,2.7,71,0.00,,SKC,0.00,VWS V14.01,2013-02-17 11:05:00,
2013-02-17 04:10:00,30.2,22.3,29.60,NW,315,1.8,2.7,72,0.00,,SKC,0.00,VWS V14.01,2013-02-17 11:10:00,
2013-02-17 04:15:00,30.6,22.0,29.60,NW,315,1.8,2.7,70,0.00,,SKC,0.00,VWS V14.01,2013-02-17 11:15:00,
2013-02-17 04:20:00,30.8,22.2,29.60,NW,315,1.1,2.7,70,0.00,,SKC,0.00,VWS V14.01,2013-02-17 11:20:00,
2013-02-17 04:25:00,30.8,22.2,29.60,NW,315,0.7,2.7,70,0.00,,SKC,0.00,VWS V14.01,2013-02-17 11:25:00,
2013-02-17 04:30:00,30.8,22.2,29.60,NNW,338,1.3,1.3,70,0.00,,SKC,0.00,VWS V14.01,2013-02-17 11:30:00,
2013-02-17 04:35:00,30.8,21.9,29.60,NW,315,1.1,1.3,69,0.00,,SKC,0.00,VWS V14.01,2013-02-17 11:35:00,
2013-02-17 04:40:00,31.0,22.0,29.59,NNW,338,1.8,2.5,69,0.00,,SKC,0.00,VWS V14.01,2013-02-17 11:40:00,
2013-02-17 04:46:00,30.6,21.3,29.59,NNW,338,2.0,2.5,68,0.00,,SKC,0.00,VWS V14.01,2013-02-17 11:46:00,
2013-02-17 04:51:00,30.6,21.6,29.59,NW,315,1.6,2.5,69,0.00,,SKC,0.00,VWS V14.01,2013-02-17 11:51:00,
2013-02-17 04:56:00,30.4,21.5,29.59,NW,315,1.1,2.5,69,0.00,,SKC,0.00,VWS V14.01,2013-02-17 11:56:00,
2013-02-17 05:01:00,30.6,21.3,29.59,NW,315,1.1,1.1,68,0.00,,SKC,0.00,VWS V14.01,2013-02-17 12:01:00,
2013-02-17 05:06:00,31.0,21.3,29.58,NW,315,1.1,2.2,67,0.00,,SKC,0.00,VWS V14.01,2013-02-17 12:06:00,
2013-02-17 05:11:00,31.1,21.1,29.58,NW,315,1.3,2.2,66,0.00,,SKC,0.00,VWS V14.01,2013-02-17 12:11:00,
2013-02-17 05:16:00,31.0,21.0,29.58,NW,315,2.0,2.7,66,0.00,,SKC,0.00,VWS V14.01,2013-02-17 12:16:00,
2013-02-17 05:21:00,31.1,21.1,29.58,NW,315,1.6,2.7,66,0.00,,SKC,0.00,VWS V14.01,2013-02-17 12:21:00,
2013-02-17 05:27:00,31.3,21.3,29.58,NW,315,3.4,3.4,66,0.00,,SKC,0.00,VWS V14.01,2013-02-17 12:27:00,
2013-02-17 05:32:00,31.3,21.3,29.58,NW,315,1.8,1.8,66,0.00,,SKC,0.00,VWS V14.01,2013-02-17 12:32:00,
2013-02-17 05:37:00,31.3,21.3,29.58,NW,315,0.9,2.5,66,0.00,,SKC,0.00,VWS V14.01,2013-02-17 12:37:00,
2013-02-17 05:42:00,31.3,21.3,29.58,NW,315,1.8,2.5,66,0.00,,SKC,0.00,VWS V14.01,2013-02-17 12:42:00,
2013-02-17 05:47:00,31.7,21.3,29.58,NW,315,1.3,2.5,65,0.00,,SKC,0.00,VWS V14.01,2013-02-17 12:47:00,
2013-02-17 05:52:00,31.7,21.3,29.57,NNW,338,0.9,2.5,65,0.00,,SKC,0.00,VWS V14.01,2013-02-17 12:52:00,
2013-02-17 05:57:00,31.3,20.9,29.57,NNW,338,1.1,2.5,65,0.00,,SKC,0.00,VWS V14.01,2013-02-17 12:57:00,
2013-02-17 06:03:00,31.0,20.6,29.56,NNW,338,1.8,2.7,65,0.00,,SKC,0.00,VWS V14.01,2013-02-17 13:03:00,
2013-02-17 06:08:00,30.8,20.8,29.56,NNW,338,1.8,2.7,66,0.00,,SKC,0.00,VWS V14.01,2013-02-17 13:08:00,
2013-02-17 06:13:00,30.8,20.8,29.56,NW,315,1.3,2.7,66,0.00,,SKC,0.00,VWS V14.01,2013-02-17 13:13:00,
2013-02-17 06:18:00,30.6,20.6,29.55,NNW,338,1.3,2.7,66,0.00,,SKC,0.00,VWS V14.01,2013-02-17 13:18:00,
2013-02-17 06:23:00,30.6,20.6,29.55,NNW,338,1.1,2.7,66,0.00,,SKC,0.00,VWS V14.01,2013-02-17 13:23:00,
2013-02-17 06:28:00,30.6,20.6,29.54,NNW,338,1.8,2.7,66,0.00,,SKC,0.00,VWS V14.01,2013-02-17 13:28:00,
2013-02-17 06:33:00,30.4,20.4,29.54,NW,315,1.1,2.5,66,0.00,,SKC,0.00,VWS V14.01,2013-02-17 13:33:00,
2013-02-17 06:39:00,30.4,20.4,29.54,NW,315,0.4,2.5,66,0.00,,SKC,0.00,VWS V14.01,2013-02-17 13:39:00,
2013-02-17 06:44:00,30.2,20.2,29.54,NNW,338,0.9,2.5,66,0.00,,SKC,0.00,VWS V14.01,2013-02-17 13:44:00,
2013-02-17 06:49:00,29.9,20.3,29.54,NW,315,0.2,2.5,67,0.00,,SKC,0.00,VWS V14.01,2013-02-17 13:49:00,
2013-02-17 06:54:00,29.9,20.6,29.54,NNW,338,1.1,2.5,68,0.00,,SKC,0.00,VWS V14.01,2013-02-17 13:54:00,
2013-02-17 06:59:00,30.2,20.6,29.54,NW,315,0.4,2.5,67,0.00,,SKC,0.00,VWS V14.01,2013-02-17 13:59:00,
2013-02-17 07:04:00,30.6,20.6,29.54,North,0,0.9,2.7,66,0.00,,SKC,0.00,VWS V14.01,2013-02-17 14:04:00,
2013-02-17 07:09:00,31.7,21.3,29.54,North,0,1.3,4.7,65,0.00,,SKC,0.00,VWS V14.01,2013-02-17 14:09:00,
2013-02-17 07:14:00,32.8,21.2,29.53,WNW,292,2.5,4.7,62,0.00,,SKC,0.00,VWS V14.01,2013-02-17 14:14:00,
2013-02-17 07:20:00,33.3,21.3,29.53,WNW,292,0.0,4.7,61,0.00,,SKC,0.00,VWS V14.01,2013-02-17 14:20:00,
2013-02-17 07:25:00,32.9,21.3,29.52,NNW,338,0.2,4.7,62,0.00,,SKC,0.00,VWS V14.01,2013-02-17 14:25:00,
2013-02-17 07:30:00,32.6,21.4,29.52,NW,315,0.0,4.7,63,0.00,,SKC,0.00,VWS V14.01,2013-02-17 14:30:00,
2013-02-17 07:35:00,32.0,21.2,29.52,NW,315,0.0,4.7,64,0.00,,SKC,0.00,VWS V14.01,2013-02-17 14:35:00,
2013-02-17 07:40:00,31.9,21.5,29.53,NW,315,0.0,4.7,65,0.00,,SKC,0.00,VWS V14.01,2013-02-17 14:40:00,
2013-02-17 07:45:00,31.9,21.5,29.52,ENE,68,0.0,4.7,65,0.00,,SKC,0.00,VWS V14.01,2013-02-17 14:45:00,
2013-02-17 07:50:00,31.7,21.3,29.52,ENE,68,0.0,4.7,65,0.00,,SKC,0.00,VWS V14.01,2013-02-17 14:50:00,
2013-02-17 07:56:00,31.9,21.9,29.52,NNW,338,0.9,4.7,66,0.00,,SKC,0.00,VWS V14.01,2013-02-17 14:56:00,
2013-02-17 08:01:00,32.0,21.9,29.52,NNW,338,0.4,0.7,66,0.00,,SKC,0.00,VWS V14.01,2013-02-17 15:01:00,
2013-02-17 08:06:00,32.2,21.8,29.52,NNW,338,2.5,2.5,65,0.00,,SKC,0.00,VWS V14.01,2013-02-17 15:06:00,
2013-02-17 08:11:00,32.8,22.0,29.53,NW,315,0.4,3.1,64,0.00,,SKC,0.00,VWS V14.01,2013-02-17 15:11:00,
2013-02-17 08:16:00,32.8,22.3,29.53,WNW,292,0.2,3.1,65,0.00,,SKC,0.00,VWS V14.01,2013-02-17 15:16:00,
2013-02-17 08:21:00,32.8,22.3,29.53,WNW,292,0.0,3.1,65,0.00,,SKC,0.00,VWS V14.01,2013-02-17 15:21:00,
2013-02-17 08:26:00,32.9,22.8,29.53,NW,315,0.0,3.1,66,0.00,,SKC,0.00,VWS V14.01,2013-02-17 15:26:00,
2013-02-17 08:32:00,33.1,22.6,29.52,NNW,338,0.4,0.4,65,0.00,,SKC,0.00,VWS V14.01,2013-02-17 15:32:00,
2013-02-17 08:37:00,33.8,22.2,29.52,NNW,338,0.4,1.8,62,0.00,,SKC,0.00,VWS V14.01,2013-02-17 15:37:00,
2013-02-17 08:42:00,34.4,22.7,29.52,NNW,338,0.2,1.8,62,0.00,,SKC,0.00,VWS V14.01,2013-02-17 15:42:00,
2013-02-17 08:47:00,34.9,22.8,29.52,NNW,338,0.0,1.8,61,0.00,,SKC,0.00,VWS V14.01,2013-02-17 15:47:00,
2013-02-17 08:52:00,36.4,23.0,29.51,NNW,338,2.5,2.5,58,0.00,,SKC,0.00,VWS V14.01,2013-02-17 15:52:00,
2013-02-17 08:57:00,38.3,24.4,29.51,NNW,338,1.3,2.7,57,0.00,,SKC,0.00,VWS V14.01,2013-02-17 15:57:00,
2013-02-17 09:02:00,39.1,25.2,29.51,NNW,338,0.0,0.7,57,0.00,,SKC,0.00,VWS V14.01,2013-02-17 16:02:00,
2013-02-17 09:07:00,39.6,25.6,29.51,NNW,338,0.4,0.7,57,0.00,,SKC,0.00,VWS V14.01,2013-02-17 16:07:00,
2013-02-17 09:12:00,40.3,23.1,29.50,North,0,0.7,1.1,50,0.00,,SKC,0.00,VWS V14.01,2013-02-17 16:12:00,
2013-02-17 09:18:00,41.0,22.8,29.50,NE,45,0.0,1.1,48,0.00,,SKC,0.00,VWS V14.01,2013-02-17 16:18:00,
2013-02-17 09:23:00,43.6,24.7,29.50,ENE,68,1.6,1.6,47,0.00,,SKC,0.00,VWS V14.01,2013-02-17 16:23:00,
2013-02-17 09:28:00,45.0,26.0,29.49,NE,45,1.1,1.6,47,0.00,,SKC,0.00,VWS V14.01,2013-02-17 16:28:00,
2013-02-17 09:33:00,47.2,27.0,29.49,NNW,338,0.2,0.4,45,0.00,,SKC,0.00,VWS V14.01,2013-02-17 16:33:00,
2013-02-17 09:38:00,50.0,25.4,29.49,NW,315,0.0,0.9,38,0.00,,SKC,0.00,VWS V14.01,2013-02-17 16:38:00,
2013-02-17 09:43:00,50.8,24.1,29.49,WNW,292,1.1,1.8,35,0.00,,SKC,0.00,VWS V14.01,2013-02-17 16:43:00,
2013-02-17 09:48:00,50.2,24.3,29.49,NW,315,0.4,1.8,36,0.00,,SKC,0.00,VWS V14.01,2013-02-17 16:48:00,
2013-02-17 09:54:00,50.4,25.8,29.48,NW,315,0.0,1.8,38,0.00,,SKC,0.00,VWS V14.01,2013-02-17 16:54:00,
2013-02-17 09:59:00,51.3,27.2,29.49,NW,315,0.4,1.8,39,0.00,,SKC,0.00,VWS V14.01,2013-02-17 16:59:00,
2013-02-17 10:04:00,53.5,28.5,29.49,NNW,338,0.2,0.7,38,0.00,,SKC,0.00,VWS V14.01,2013-02-17 17:04:00,
2013-02-17 10:09:00,53.8,25.4,29.48,NW,315,0.2,1.3,33,0.00,,SKC,0.00,VWS V14.01,2013-02-17 17:09:00,
2013-02-17 10:14:00,54.4,24.4,29.48,NW,315,0.9,1.3,31,0.00,,SKC,0.00,VWS V14.01,2013-02-17 17:14:00,
2013-02-17 10:19:00,55.8,24.0,29.48,North,0,0.0,1.3,29,0.00,,SKC,0.00,VWS V14.01,2013-02-17 17:19:00,
2013-02-17 10:24:00,57.4,24.6,29.48,WNW,292,1.1,2.5,28,0.00,,SKC,0.00,VWS V14.01,2013-02-17 17:24:00,
2013-02-17 10:29:00,58.3,23.6,29.48,WNW,292,1.3,2.5,26,0.00,,SKC,0.00,VWS V14.01,2013-02-17 17:29:00,
2013-02-17 10:35:00,58.1,21.5,29.48,WNW,292,1.6,1.8,24,0.00,,SKC,0.00,VWS V14.01,2013-02-17 17:35:00,
2013-02-17 10:40:00,57.8,22.2,29.48,NNW,338,1.3,2.5,25,0.00,,SKC,0.00,VWS V14.01,2013-02-17 17:40:00,
2013-02-17 10:45:00,59.4,25.4,29.47,NNE,22,1.6,2.5,27,0.00,,SKC,0.00,VWS V14.01,2013-02-17 17:45:00,
2013-02-17 10:50:00,60.1,24.2,29.47,NNW,338,0.2,2.5,25,0.00,,SKC,0.00,VWS V14.01,2013-02-17 17:50:00,
2013-02-17 10:55:00,59.4,22.6,29.47,North,0,2.2,2.5,24,0.00,,SKC,0.00,VWS V14.01,2013-02-17 17:55:00,
2013-02-17 11:00:00,57.1,20.7,29.48,WNW,292,0.4,0.4,24,0.00,,SKC,0.00,VWS V14.01,2013-02-17 18:00:00,
2013-02-17 11:05:00,57.2,20.8,29.47,NW,315,2.5,3.1,24,0.00,,SKC,0.00,VWS V14.01,2013-02-17 18:05:00,
2013-02-17 11:11:00,58.9,22.2,29.47,NW,315,2.5,3.1,24,0.00,,SKC,0.00,VWS V14.01,2013-02-17 18:11:00,
2013-02-17 11:16:00,59.2,22.5,29.48,North,0,2.5,3.1,24,0.00,,SKC,0.00,VWS V14.01,2013-02-17 18:16:00,
2013-02-17 11:21:00,58.0,20.4,29.47,North,0,3.8,3.8,23,0.00,,SKC,0.00,VWS V14.01,2013-02-17 18:21:00,
2013-02-17 11:26:00,56.7,20.3,29.47,North,0,3.1,3.8,24,0.00,,SKC,0.00,VWS V14.01,2013-02-17 18:26:00,
2013-02-17 11:31:00,55.4,22.0,29.47,NE,45,2.5,3.4,27,0.00,,SKC,0.00,VWS V14.01,2013-02-17 18:31:00,
2013-02-17 11:36:00,54.4,22.0,29.47,East,90,5.1,5.4,28,0.00,,SKC,0.00,VWS V14.01,2013-02-17 18:36:00,
2013-02-17 11:41:00,53.5,22.0,29.47,NE,45,1.1,5.4,29,0.00,,SKC,0.00,VWS V14.01,2013-02-17 18:41:00,
2013-02-17 11:46:00,53.3,21.9,29.47,East,90,6.0,6.0,29,0.00,,SKC,0.00,VWS V14.01,2013-02-17 18:46:00,
2013-02-17 11:52:00,52.9,21.5,29.46,NNW,338,1.3,6.0,29,0.00,,SKC,0.00,VWS V14.01,2013-02-17 18:52:00,
2013-02-17 11:57:00,53.3,25.0,29.46,East,90,6.3,6.3,33,0.00,,SKC,0.00,VWS V14.01,2013-02-17 18:57:00,
2013-02-17 12:02:00,52.4,24.2,29.45,NE,45,6.9,8.1,33,0.00,,SKC,0.00,VWS V14.01,2013-02-17 19:02:00,
2013-02-17 12:07:00,52.4,23.4,29.45,NNW,338,0.7,8.1,32,0.00,,SKC,0.00,VWS V14.01,2013-02-17 19:07:00,
2013-02-17 12:12:00,53.3,24.2,29.45,NW,315,0.7,8.1,32,0.00,,SKC,0.00,VWS V14.01,2013-02-17 19:12:00,
2013-02-17 12:17:00,53.6,22.9,29.45,North,0,0.7,8.1,30,0.00,,SKC,0.00,VWS V14.01,2013-02-17 19:17:00,
2013-02-17 12:22:00,53.8,24.6,29.45,WNW,292,0.7,8.1,32,0.00,,SKC,0.00,VWS V14.01,2013-02-17 19:22:00,
2013-02-17 12:28:00,53.8,23.9,29.45,WNW,292,0.7,8.1,31,0.00,,SKC,0.00,VWS V14.01,2013-02-17 19:28:00,
2013-02-17 12:33:00,53.6,22.1,29.45,NE,45,0.9,1.8,29,0.00,,SKC,0.00,VWS V14.01,2013-02-17 19:33:00,
2013-02-17 12:38:00,53.6,23.7,29.45,WNW,292,1.8,1.8,31,0.00,,SKC,0.00,VWS V14.01,2013-02-17 19:38:00,
2013-02-17 12:43:00,52.9,23.1,29.45,WNW,292,2.2,3.6,31,0.00,,SKC,0.00,VWS V14.01,2013-02-17 19:43:00,
2013-02-17 12:48:00,52.6,22.9,29.45,NW,315,1.8,3.6,31,0.00,,SKC,0.00,VWS V14.01,2013-02-17 19:48:00,
2013-02-17 12:53:00,52.6,23.6,29.45,NW,315,0.4,3.6,32,0.00,,SKC,0.00,VWS V14.01,2013-02-17 19:53:00,
2013-02-17 12:58:00,52.6,22.9,29.45,NNW,338,1.3,4.5,31,0.00,,SKC,0.00,VWS V14.01,2013-02-17 19:58:00,
2013-02-17 13:03:00,52.9,23.1,29.45,NW,315,3.8,3.8,31,0.00,,SKC,0.00,VWS V14.01,2013-02-17 20:03:00,
2013-02-17 13:09:00,52.6,22.9,29.45,WNW,292,4.3,5.1,31,0.00,,SKC,0.00,VWS V14.01,2013-02-17 20:09:00,
2013-02-17 13:14:00,52.4,22.7,29.45,WNW,292,1.8,5.1,31,0.00,,SKC,0.00,VWS V14.01,2013-02-17 20:14:00,
2013-02-17 13:19:00,52.4,23.4,29.44,NNW,338,0.7,5.1,32,0.00,,SKC,0.00,VWS V14.01,2013-02-17 20:19:00,
2013-02-17 13:24:00,52.6,22.9,29.44,NW,315,4.0,5.1,31,0.00,,SKC,0.00,VWS V14.01,2013-02-17 20:24:00,
2013-02-17 13:29:00,52.4,24.9,29.44,WNW,292,2.0,5.1,34,0.00,,SKC,0.00,VWS V14.01,2013-02-17 20:29:00,
2013-02-17 13:34:00,52.6,22.1,29.44,NW,315,0.7,3.4,30,0.00,,SKC,0.00,VWS V14.01,2013-02-17 20:34:00,
2013-02-17 13:40:00,52.4,22.7,29.44,WNW,292,1.3,3.4,31,0.00,,SKC,0.00,VWS V14.01,2013-02-17 20:40:00,
2013-02-17 13:45:00,52.4,21.9,29.44,NW,315,1.3,3.4,30,0.00,,SKC,0.00,VWS V14.01,2013-02-17 20:45:00,
2013-02-17 13:50:00,51.7,23.5,29.44,NNW,338,3.1,3.4,33,0.00,,SKC,0.00,VWS V14.01,2013-02-17 20:50:00,
2013-02-17 13:55:00,50.6,25.3,29.44,NW,315,1.3,3.4,37,0.00,,SKC,0.00,VWS V14.01,2013-02-17 20:55:00,
2013-02-17 14:00:00,49.5,25.0,29.45,NNE,22,4.0,4.0,38,0.00,,SKC,0.00,VWS V14.01,2013-02-17 21:00:00,
2013-02-17 14:05:00,48.1,25.5,29.45,NW,315,3.4,4.0,41,0.00,,SKC,0.00,VWS V14.01,2013-02-17 21:05:00,
2013-02-17 14:10:00,46.6,25.9,29.46,NW,315,3.4,4.0,44,0.00,,SKC,0.00,VWS V14.01,2013-02-17 21:10:00,
2013-02-17 14:15:00,45.7,26.1,29.46,NW,315,3.6,8.1,46,0.00,,SKC,0.00,VWS V14.01,2013-02-17 21:15:00,
2013-02-17 14:21:00,44.8,25.8,29.46,North,0,1.8,8.1,47,0.00,,SKC,0.00,VWS V14.01,2013-02-17 21:21:00,
2013-02-17 14:26:00,43.9,26.0,29.47,North,0,2.2,8.1,49,0.00,,SKC,0.00,VWS V14.01,2013-02-17 21:26:00,
2013-02-17 14:31:00,43.2,26.3,29.47,NW,315,3.4,5.1,51,0.00,,SKC,0.00,VWS V14.01,2013-02-17 21:31:00,
2013-02-17 14:36:00,43.0,26.6,29.47,NW,315,0.2,5.1,52,0.00,,SKC,0.00,VWS V14.01,2013-02-17 21:36:00,
2013-02-17 14:41:00,42.7,26.3,29.47,NW,315,1.8,5.1,52,0.00,,SKC,0.00,VWS V14.01,2013-02-17 21:41:00,
2013-02-17 14:46:00,42.3,26.9,29.47,NNE,22,2.9,6.9,54,0.00,,SKC,0.00,VWS V14.01,2013-02-17 21:46:00,
2013-02-17 14:51:00,42.3,26.9,29.48,WNW,292,1.8,6.9,54,0.00,,SKC,0.00,VWS V14.01,2013-02-17 21:51:00,
2013-02-17 14:56:00,41.6,26.6,29.47,NW,315,3.1,6.9,55,0.00,,SKC,0.00,VWS V14.01,2013-02-17 21:56:00,
2013-02-17 15:02:00,41.4,27.3,29.48,NW,315,5.6,5.6,57,0.00,,SKC,0.00,VWS V14.01,2013-02-17 22:02:00,
2013-02-17 15:07:00,41.6,27.5,29.48,WNW,292,1.8,5.6,57,0.00,,SKC,0.00,VWS V14.01,2013-02-17 22:07:00,
2013-02-17 15:12:00,41.4,28.2,29.48,NW,315,3.4,5.6,59,0.00,,SKC,0.00,VWS V14.01,2013-02-17 22:12:00,
2013-02-17 15:17:00,41.0,28.2,29.49,WNW,292,2.9,5.6,60,0.00,,SKC,0.00,VWS V14.01,2013-02-17 22:17:00,
2013-02-17 15:22:00,40.3,27.9,29.50,WNW,292,4.0,5.6,61,0.00,,SKC,0.00,VWS V14.01,2013-02-17 22:22:00,
2013-02-17 15:27:00,39.8,27.5,29.50,WNW,292,3.4,5.6,61,0.00,,SKC,0.00,VWS V14.01,2013-02-17 22:27:00,
2013-02-17 15:32:00,39.1,27.2,29.51,NW,315,4.5,4.7,62,0.00,,SKC,0.00,VWS V14.01,2013-02-17 22:32:00,
2013-02-17 15:38:00,38.7,26.8,29.51,NW,315,5.1,5.1,62,0.00,,SKC,0.00,VWS V14.01,2013-02-17 22:38:00,
2013-02-17 15:43:00,38.5,26.6,29.52,NE,45,5.4,5.4,62,0.00,,SKC,0.00,VWS V14.01,2013-02-17 22:43:00,
2013-02-17 15:48:00,38.2,26.7,29.52,WNW,292,2.5,5.4,63,0.00,,SKC,0.00,VWS V14.01,2013-02-17 22:48:00,
2013-02-17 15:53:00,38.0,25.4,29.52,WNW,292,4.0,5.4,60,0.00,,SKC,0.00,VWS V14.01,2013-02-17 22:53:00,
2013-02-17 15:58:00,37.8,24.8,29.53,NW,315,0.4,5.4,59,0.00,,SKC,0.00,VWS V14.01,2013-02-17 22:58:00,
2013-02-17 16:03:00,37.3,24.7,29.53,NNW,338,4.7,5.8,60,0.00,,SKC,0.00,VWS V14.01,2013-02-17 23:03:00,
2013-02-17 16:08:00,37.3,24.7,29.54,NW,315,1.3,6.3,60,0.00,,SKC,0.00,VWS V14.01,2013-02-17 23:08:00,
2013-02-17 16:14:00,37.3,25.5,29.54,NNW,338,0.7,6.3,62,0.00,,SKC,0.00,VWS V14.01,2013-02-17 23:14:00,
2013-02-17 16:19:00,37.1,25.3,29.54,North,0,2.5,6.3,62,0.00,,SKC,0.00,VWS V14.01,2013-02-17 23:19:00,
2013-02-17 16:24:00,36.7,24.1,29.54,North,0,0.4,6.3,60,0.00,,SKC,0.00,VWS V14.01,2013-02-17 23:24:00,
2013-02-17 16:29:00,36.2,23.7,29.54,NW,315,2.0,6.3,60,0.00,,SKC,0.00,VWS V14.01,2013-02-17 23:29:00,
2013-02-17 16:34:00,35.6,22.7,29.55,North,0,2.5,6.9,59,0.00,,SKC,0.00,VWS V14.01,2013-02-17 23:34:00,
2013-02-17 16:39:00,35.3,22.8,29.55,East,90,0.9,6.9,60,0.00,,SKC,0.00,VWS V14.01,2013-02-17 23:39:00,
2013-02-17 16:44:00,34.9,22.4,29.55,NW,315,2.0,6.9,60,0.00,,SKC,0.00,VWS V14.01,2013-02-17 23:44:00,
2013-02-17 16:49:00,34.9,23.2,29.55,NNW,338,2.7,6.9,62,0.00,,SKC,0.00,VWS V14.01,2013-02-17 23:49:00,
2013-02-17 16:55:00,34.6,22.9,29.55,NW,315,2.9,6.9,62,0.00,,SKC,0.00,VWS V14.01,2013-02-17 23:55:00,
2013-02-17 17:00:00,34.2,22.5,29.56,East,90,0.9,6.9,62,0.00,,SKC,0.00,VWS V14.01,2013-02-18 00:00:00,
2013-02-17 17:05:00,34.0,22.4,29.56,NW,315,0.0,1.3,62,0.00,,SKC,0.00,VWS V14.01,2013-02-18 00:05:00,
2013-02-17 17:10:00,34.0,22.7,29.56,WNW,292,0.7,3.6,63,0.00,,SKC,0.00,VWS V14.01,2013-02-18 00:10:00,
2013-02-17 17:15:00,33.7,22.8,29.56,WNW,292,0.4,3.6,64,0.00,,SKC,0.00,VWS V14.01,2013-02-18 00:15:00,
2013-02-17 17:20:00,33.5,22.3,29.56,WNW,292,0.4,3.6,63,0.00,,SKC,0.00,VWS V14.01,2013-02-18 00:20:00,
2013-02-17 17:25:00,33.3,22.5,29.56,NW,315,0.0,3.6,64,0.00,,SKC,0.00,VWS V14.01,2013-02-18 00:25:00,
2013-02-17 17:30:00,33.1,22.3,29.56,NNE,22,0.7,0.7,64,0.00,,SKC,0.00,VWS V14.01,2013-02-18 00:30:00,
2013-02-17 17:36:00,32.9,22.4,29.57,North,0,1.8,1.8,65,0.00,,SKC,0.00,VWS V14.01,2013-02-18 00:36:00,
2013-02-17 17:41:00,32.8,22.3,29.57,ENE,68,0.2,1.8,65,0.00,,SKC,0.00,VWS V14.01,2013-02-18 00:41:00,
2013-02-17 17:46:00,32.6,22.1,29.57,NW,315,0.4,1.8,65,0.00,,SKC,0.00,VWS V14.01,2013-02-18 00:46:00,
2013-02-17 17:51:00,32.6,22.1,29.57,WNW,292,1.1,1.8,65,0.00,,SKC,0.00,VWS V14.01,2013-02-18 00:51:00,
2013-02-17 17:56:00,32.2,22.1,29.57,North,0,3.1,3.4,66,0.00,,SKC,0.00,VWS V14.01,2013-02-18 00:56:00,
2013-02-17 18:01:00,32.4,22.3,29.57,NW,315,0.4,0.4,66,0.00,,SKC,0.00,VWS V14.01,2013-02-18 01:01:00,
2013-02-17 18:06:00,32.2,22.1,29.57,NNE,22,1.1,1.1,66,0.00,,SKC,0.00,VWS V14.01,2013-02-18 01:06:00,
2013-02-17 18:12:00,32.2,22.1,29.57,East,90,0.2,1.1,66,0.00,,SKC,0.00,VWS V14.01,2013-02-18 01:12:00,
2013-02-17 18:17:00,32.4,22.3,29.58,East,90,0.4,4.7,66,0.00,,SKC,0.00,VWS V14.01,2013-02-18 01:17:00,
2013-02-17 18:22:00,32.6,22.5,29.58,NW,315,0.4,5.6,66,0.00,,SKC,0.00,VWS V14.01,2013-02-18 01:22:00,
2013-02-17 18:27:00,32.4,22.3,29.59,WNW,292,0.4,5.6,66,0.00,,SKC,0.00,VWS V14.01,2013-02-18 01:27:00,
2013-02-17 18:32:00,32.4,22.7,29.58,WNW,292,0.2,0.4,67,0.00,,SKC,0.00,VWS V14.01,2013-02-18 01:32:00,
2013-02-17 18:37:00,32.2,22.5,29.59,NW,315,0.2,3.4,67,0.00,,SKC,0.00,VWS V14.01,2013-02-18 01:37:00,
2013-02-17 18:42:00,32.4,22.7,29.59,WNW,292,2.2,3.4,67,0.00,,SKC,0.00,VWS V14.01,2013-02-18 01:42:00,
2013-02-17 18:47:00,32.6,23.6,29.59,WNW,292,0.4,5.4,69,0.00,,SKC,0.00,VWS V14.01,2013-02-18 01:47:00,
2013-02-17 18:53:00,32.8,24.1,29.59,NW,315,1.3,5.4,70,0.00,,SKC,0.00,VWS V14.01,2013-02-18 01:53:00,
2013-02-17 18:58:00,32.4,24.4,29.59,WNW,292,1.8,5.4,72,0.00,,SKC,0.00,VWS V14.01,2013-02-18 01:58:00,
2013-02-17 19:03:00,32.0,24.3,29.59,NW,315,2.5,2.5,73,0.00,,SKC,0.00,VWS V14.01,2013-02-18 02:03:00,
2013-02-17 19:08:00,32.0,24.3,29.59,NW,315,1.6,4.3,73,0.00,,SKC,0.00,VWS V14.01,2013-02-18 02:08:00,
2013-02-17 19:13:00,31.9,24.2,29.59,NW,315,0.4,4.3,73,0.00,,SKC,0.00,VWS V14.01,2013-02-18 02:13:00,
2013-02-17 19:18:00,31.7,24.0,29.59,WNW,292,0.2,4.3,73,0.00,,SKC,0.00,VWS V14.01,2013-02-18 02:18:00,
2013-02-17 19:23:00,31.3,23.7,29.59,WNW,292,3.6,4.3,73,0.00,,SKC,0.00,VWS V14.01,2013-02-18 02:23:00,
2013-02-17 19:29:00,31.3,23.3,29.60,WNW,292,0.9,4.3,72,0.00,,SKC,0.00,VWS V14.01,2013-02-18 02:29:00,
2013-02-17 19:34:00,31.3,22.7,29.60,WNW,292,0.0,1.8,70,0.00,,SKC,0.00,VWS V14.01,2013-02-18 02:34:00,
2013-02-17 19:39:00,31.3,22.7,29.60,NNW,338,1.3,6.3,70,0.00,,SKC,0.00,VWS V14.01,2013-02-18 02:39:00,
2013-02-17 19:44:00,31.5,22.2,29.60,WNW,292,0.7,6.3,68,0.00,,SKC,0.00,VWS V14.01,2013-02-18 02:44:00,
2013-02-17 19:49:00,31.9,21.9,29.60,WNW,292,3.4,6.3,66,0.00,,SKC,0.00,VWS V14.01,2013-02-18 02:49:00,
2013-02-17 19:54:00,32.2,22.1,29.60,NNW,338,1.8,6.3,66,0.00,,SKC,0.00,VWS V14.01,2013-02-18 02:54:00,
2013-02-17 19:59:00,32.2,22.1,29.60,NNW,338,1.1,6.3,66,0.00,,SKC,0.00,VWS V14.01,2013-02-18 02:59:00,
2013-02-17 20:05:00,32.4,22.0,29.60,WNW,292,3.4,4.7,65,0.00,,SKC,0.00,VWS V14.01,2013-02-18 03:05:00,
2013-02-17 20:10:00,32.4,22.3,29.60,North,0,0.9,4.7,66,0.00,,SKC,0.00,VWS V14.01,2013-02-18 03:10:00,
2013-02-17 20:15:00,32.2,22.1,29.60,NNE,22,0.4,4.7,66,0.00,,SKC,0.00,VWS V14.01,2013-02-18 03:15:00,
2013-02-17 20:20:00,32.2,21.8,29.60,WNW,292,1.6,4.7,65,0.00,,SKC,0.00,VWS V14.01,2013-02-18 03:20:00,
2013-02-17 20:25:00,32.2,22.1,29.60,WNW,292,2.9,4.7,66,0.00,,SKC,0.00,VWS V14.01,2013-02-18 03:25:00,
2013-02-17 20:30:00,32.2,21.8,29.61,East,90,0.4,0.4,65,0.00,,SKC,0.00,VWS V14.01,2013-02-18 03:30:00,
2013-02-17 20:35:00,32.4,22.0,29.60,North,0,3.6,3.6,65,0.00,,SKC,0.00,VWS V14.01,2013-02-18 03:35:00,
2013-02-17 20:40:00,32.2,22.8,29.60,NW,315,5.6,5.6,68,0.00,,SKC,0.00,VWS V14.01,2013-02-18 03:40:00,
2013-02-17 20:46:00,32.0,22.6,29.61,WNW,292,2.2,5.6,68,0.00,,SKC,0.00,VWS V14.01,2013-02-18 03:46:00,
2013-02-17 20:51:00,31.3,22.0,29.61,WNW,292,1.3,7.6,68,0.00,,SKC,0.00,VWS V14.01,2013-02-18 03:51:00,
2013-02-17 20:56:00,31.3,22.0,29.61,NW,315,4.0,7.6,68,0.00,,SKC,0.00,VWS V14.01,2013-02-18 03:56:00,
2013-02-17 21:01:00,31.0,21.7,29.61,NW,315,1.8,1.8,68,0.00,,SKC,0.00,VWS V14.01,2013-02-18 04:01:00,
2013-02-17 21:06:00,30.6,21.3,29.61,WNW,292,2.2,3.4,68,0.00,,SKC,0.00,VWS V14.01,2013-02-18 04:06:00,
2013-02-17 21:11:00,30.6,21.3,29.60,NE,45,3.6,3.6,68,0.00,,SKC,0.00,VWS V14.01,2013-02-18 04:11:00,
2013-02-17 21:16:00,30.6,21.3,29.61,WNW,292,1.1,4.0,68,0.00,,SKC,0.00,VWS V14.01,2013-02-18 04:16:00,
2013-02-17 21:21:00,30.6,21.3,29.61,NW,315,2.7,5.4,68,0.00,,SKC,0.00,VWS V14.01,2013-02-18 04:21:00,
2013-02-17 21:27:00,30.4,21.1,29.61,WNW,292,2.5,5.8,68,0.00,,SKC,0.00,VWS V14.01,2013-02-18 04:27:00,
2013-02-17 21:32:00,30.2,20.9,29.61,WNW,292,4.5,4.5,68,0.00,,SKC,0.00,VWS V14.01,2013-02-18 04:32:00,
2013-02-17 21:37:00,30.2,20.9,29.61,NNW,338,2.9,4.5,68,0.00,,SKC,0.00,VWS V14.01,2013-02-18 04:37:00,
2013-02-17 21:42:00,30.4,21.1,29.61,NW,315,3.4,5.4,68,0.00,,SKC,0.00,VWS V14.01,2013-02-18 04:42:00,
2013-02-17 21:47:00,30.2,21.3,29.61,NNW,338,1.1,5.4,69,0.00,,SKC,0.00,VWS V14.01,2013-02-18 04:47:00,
2013-02-17 21:52:00,30.2,21.3,29.61,NW,315,4.3,5.4,69,0.00,,SKC,0.00,VWS V14.01,2013-02-18 04:52:00,
2013-02-17 21:57:00,30.4,21.5,29.61,NW,315,4.3,5.4,69,0.00,,SKC,0.00,VWS V14.01,2013-02-18 04:57:00,
2013-02-17 22:00:00,30.2,21.3,29.61,NNE,22,7.6,7.6,69,0.00,,SKC,0.00,VWS V14.01,2013-02-18 05:00:00,
2013-02-17 22:01:00,30.1,20.8,29.61,NE,45,6.9,6.9,68,0.00,,SKC,0.00,VWS V14.01,2013-02-18 05:01:00,
2013-02-17 22:06:00,29.9,20.6,29.61,NE,45,2.5,6.9,68,0.00,,SKC,0.00,VWS V14.01,2013-02-18 05:06:00,
2013-02-17 22:11:00,29.9,21.0,29.61,NW,315,1.1,6.9,69,0.00,,SKC,0.00,VWS V14.01,2013-02-18 05:11:00,
2013-02-17 22:16:00,29.9,21.0,29.61,NE,45,4.5,7.2,69,0.00,,SKC,0.00,VWS V14.01,2013-02-18 05:16:00,
2013-02-17 22:21:00,29.7,20.8,29.61,NW,315,4.5,7.2,69,0.00,,SKC,0.00,VWS V14.01,2013-02-18 05:21:00,
2013-02-17 22:26:00,29.7,21.1,29.61,WNW,292,2.2,7.2,70,0.00,,SKC,0.00,VWS V14.01,2013-02-18 05:26:00,
2013-02-17 22:31:00,29.7,21.1,29.61,WNW,292,5.8,5.8,70,0.00,,SKC,0.00,VWS V14.01,2013-02-18 05:31:00,
2013-02-17 22:36:00,29.5,20.9,29.61,ENE,68,2.5,5.8,70,0.00,,SKC,0.00,VWS V14.01,2013-02-18 05:36:00,
2013-02-17 22:42:00,29.3,20.7,29.62,NW,315,3.6,5.8,70,0.00,,SKC,0.00,VWS V14.01,2013-02-18 05:42:00,
2013-02-17 22:47:00,29.2,20.3,29.62,NNE,22,3.4,5.8,69,0.00,,SKC,0.00,VWS V14.01,2013-02-18 05:47:00,
2013-02-17 22:52:00,29.2,20.3,29.62,NW,315,5.4,5.8,69,0.00,,SKC,0.00,VWS V14.01,2013-02-18 05:52:00,
2013-02-17 22:57:00,29.3,20.4,29.62,WNW,292,3.4,5.8,69,0.00,,SKC,0.00,VWS V14.01,2013-02-18 05:57:00,
2013-02-17 23:02:00,29.2,20.6,29.62,WNW,292,2.7,2.7,70,0.00,,SKC,0.00,VWS V14.01,2013-02-18 06:02:00,
2013-02-17 23:07:00,29.2,20.6,29.62,NE,45,4.0,6.3,70,0.00,,SKC,0.00,VWS V14.01,2013-02-18 06:07:00,
2013-02-17 23:12:00,29.0,20.8,29.62,NNW,338,2.5,6.3,71,0.00,,SKC,0.00,VWS V14.01,2013-02-18 06:12:00,
2013-02-17 23:17:00,28.8,20.9,29.62,NNW,338,2.5,6.3,72,0.00,,SKC,0.00,VWS V14.01,2013-02-18 06:17:00,
2013-02-17 23:23:00,28.6,21.1,29.63,NW,315,0.7,6.3,73,0.00,,SKC,0.00,VWS V14.01,2013-02-18 06:23:00,
2013-02-17 23:28:00,28.4,21.2,29.63,NNE,22,1.3,6.3,74,0.00,,SKC,0.00,VWS V14.01,2013-02-18 06:28:00,
2013-02-17 23:33:00,28.4,21.5,29.63,NW,315,2.0,5.1,75,0.00,,SKC,0.00,VWS V14.01,2013-02-18 06:33:00,
2013-02-17 23:38:00,28.4,21.5,29.63,East,90,0.9,5.1,75,0.00,,SKC,0.00,VWS V14.01,2013-02-18 06:38:00,
2013-02-17 23:43:00,28.4,21.5,29.64,NW,315,4.7,5.1,75,0.00,,SKC,0.00,VWS V14.01,2013-02-18 06:43:00,
2013-02-17 23:48:00,28.4,20.9,29.64,NW,315,3.1,6.7,73,0.00,,SKC,0.00,VWS V14.01,2013-02-18 06:48:00,
2013-02-17 23:53:00,28.4,20.9,29.65,NW,315,2.5,6.7,73,0.00,,SKC,0.00,VWS V14.01,2013-02-18 06:53:00,
2013-02-17 23:58:00,28.6,21.1,29.65,NW,315,3.4,6.7,73,0.00,,SKC,0.00,VWS V14.01,2013-02-18 06:58:00,